Regional Weather Roundup
Issued by NWS Midland/Odessa, TX

Skip options and go directly to product.
Home | Oldest Version | Next Version | Current Version | All | Text Only | Save Text | Print | Product List | Glossary On

Skip product version selection by date and time.   
742
ASUS44 KMAF 281701
RWRMAF
MIDLAND AREA WEATHER ROUNDUP
NATIONAL WEATHER SERVICE MIDLAND TX
1200 PM CDT THU APR 28 2016

...IN SOUTHWEST TEXAS AND SOUTHEAST NEW MEXICO...

CITY           SKY/WX    TMP DP  RH WIND       PRES   REMARKS
ALPINE         SUNNY     79  18  10 S5        29.91F
ANDREWS        FAIR      79  37  22 S16G33    29.78F
ARTESIA        SUNNY     79  19  11 SW20G28   29.77F
BIG SPRING     SUNNY     78  52  40 SE24G35   29.82S
CARLSBAD       SUNNY     78  26  14 E7        29.76F
DRYDEN           N/A     80  61  52 E16G23    29.78S
FORT STOCKTON  SUNNY     85  31  14 W7        29.77F
GUAD PASS      NOT AVBL
HOBBS          SUNNY     75  30  19 S7        29.81F
MARFA          SUNNY     77  20  12 W12G18    29.90R
MIDLAND AIRPK  SUNNY     82  46  28 S20G26    29.78F
MIDLAND INTL   SUNNY     83  43  24 S21G31    29.77F
ODESSA         SUNNY     82  39  21 S28       29.78F
PECOS          SUNNY     77  25  14 NW5       29.77S
PRESIDIO       FAIR      83  22  10 SW5       29.79F
SEMINOLE       SUNNY     78  38  23 S9G16     29.81F
SNYDER           N/A     75  55  49 S17G25    29.83F
WINK           SUNNY     80  27  14 CALM      29.75F
$$
...OTHER STATIONS IN TEXAS...

CITY           SKY/WX    TMP DP  RH WIND       PRES   REMARKS
ABILENE        SUNNY     79  56  45 SE23G29   29.84F
AMARILLO       SUNNY     66  44  45 E24G33    29.89F
AUSTIN         MOSUNNY   80  66  62 E12       29.85F
BROWNSVILLE    CLOUDY    83  75  77 SE20G26   29.76F HAZE
CORPUS CHRISTI CLOUDY    80  74  81 E21       29.77F
DALLAS FTW     SUNNY     80  54  40 SE13      29.90S
DEL RIO        CLOUDY    76  65  68 SE18G25   29.79F HAZE
EL PASO        FAIR      75  17  11 W14G22    29.80F
HOUSTON INT    MOSUNNY   80  71  74 E10       29.86S
LUBBOCK        MOSUNNY   76  47  35 S23G32    29.81F
SAN ANGELO     SUNNY     81  55  40 SE16      29.80F
SAN ANTONIO    MOSUNNY   79  66  64 E12G21    29.85F
WACO           SUNNY     75  62  64 SE9       29.89F
WICHITA FALLS  NOT AVBL
$$
...OTHER LOCATIONS IN NEW MEXICO...

CITY           SKY/WX    TMP DP  RH WIND       PRES   REMARKS
ALAMAGORDO     SUNNY     72  19  14 S13G26    29.82F
ALBUQUERQUE    MOSUNNY   66  18  15 S21G26    29.79F
CANNON AFB     MOSUNNY   69  32  25 SE8       29.82F
CLOVIS         SUNNY     66  37  34 SE13      29.84F
HOLLOMAN AFB   SUNNY     73  16  11 S14G21    29.80F
ROSWELL        SUNNY     80  17   9 SW15G21   29.76F
RUIDOSO          N/A     63  12  14 S21       29.91S
SANTA FE       PTSUNNY   63  26  24 SE23G33   29.82S
TRUTH OR CONSE FAIR      68  17  14 S14G26    29.79F
TUCUMCARI      SUNNY     64  41  42 NE10      29.85S
$$

USA.gov is the U.S. government's official web portal to all federal, state and local government web resources and services.